Location: Castelbiague
(43.0361°N, 0.9246°E)
Time: 10:05:56
(UTC+00:00)

Cosmos 405 - Pass Details

Date: 17 June 2021
Orbit: 446 x 459 km, 81.3° (Epoch: 27 July)

Event Time Altitude Azimuth Distance (km) Brightness Sun altitude
Rises 21:55:07 0° 350° (N) 2,460 8.0 -17.8°
Reaches altitude 10° 21:57:12 10° 351° (N) 1,582 6.7 -18.0°
Maximum altitude 22:00:39 85° 79° (E) 455 2.8 -18.3°
Enters shadow 22:01:14 59° 161° (SSE) 522 2.8 -18.4°
